Brevnov, Czech Republic

10:39 PM CEST on May 26, 2017 (GMT +0200)
Brevnov

Weather History for 11518 - October, 2013

Change the Weather History Date:

Thursday, October 10, 2013

  Actual Average Record
Temperature  
Mean Temperature 52 °F -  
Max Temperature 61 °F 52 °F - ()
Min Temperature 44 °F 37 °F - ()
Degree Days  
Heating Degree Days 12    
Growing Degree Days 2 (Base 50)    
Moisture  
Dew Point 46 °F    
Average Humidity 83    
Maximum Humidity 100    
Minimum Humidity 50    
Precipitation  
Precipitation 0.39 in 0.04 in - ()
Sea Level Pressure  
Sea Level Pressure 29.76 in    
Wind  
Wind Speed 8 mph ()    
Max Wind Speed 14 mph    
Max Gust Speed -    
Visibility 5.4 miles    
Events Rain    
T = Trace of Precipitation, MM = Missing Value Source: Averaged Metar Reports

Daily Weather History Graph

Daily Weather History Graph

Search for Another Location

Airport or City:

Trip Planner

Search our weather history database for the weather conditions in past years. The results will help you decide how hot, cold, wet, or windy it might be!

Date:

Astronomy

Oct. 10, 2013 Rise Set
Actual Time 7:17 AM CEST 6:21 PM CEST
Civil Twilight 6:44 AM CEST 6:54 PM CEST
Nautical Twilight 6:07 AM CEST 7:31 PM CEST
Astronomical Twilight 5:29 AM CEST 8:09 PM CEST
Moon 1:16 PM CEST (10/10) 10:18 PM CEST (10/10)
Length of Visible Light 12h 09m
Length of Day
11h 04m
Waxing Crescent, 33% of the Moon is Illuminated
Oct 10
Waxing Crescent
Oct 12
First Quarter
Oct 19
Full
Oct 27
Last Quarter
Nov 3
New

Hourly Weather History & Observations

Time (CEST) Temp. Windchill Dew Point Humidity Pressure Visibility Wind Dir Wind Speed Gust Speed Precip Events Conditions
12:00 AM 50.0 °F - 46.4 °F 87% 29.92 in 5.0 mi SSW 9.2 mph - N/A   Unknown
12:30 AM 50.0 °F - 46.4 °F 87% 29.89 in 5.0 mi SSW 8.1 mph - N/A   Unknown
1:00 AM 50.0 °F - 46.4 °F 87% 29.89 in 5.6 mi SSW 8.1 mph - N/A   Unknown
1:30 AM 50.0 °F - 46.4 °F 87% 29.89 in 5.6 mi SSW 6.9 mph - N/A   Unknown
2:00 AM 50 °F - 47 °F 84% 29.89 in 5 mi South 6.7 mph - -   Mist
2:00 AM 50.0 °F - 46.4 °F 87% 29.86 in 5.0 mi South 8.1 mph - N/A   Unknown
2:30 AM 50.0 °F - 46.4 °F 87% 29.86 in 5.0 mi South 5.8 mph - N/A   Unknown
3:00 AM 50.0 °F - 46.4 °F 87% 29.83 in 5.0 mi SSW 6.9 mph - N/A   Unknown
3:30 AM 50.0 °F - 46.4 °F 87% 29.83 in 5.0 mi South 10.4 mph - N/A   Unknown
4:00 AM 48.2 °F - 44.6 °F 87% 29.83 in 4.3 mi South 8.1 mph - N/A   Unknown
4:30 AM 48.2 °F - 46.4 °F 93% 29.83 in 4.3 mi South 11.5 mph - N/A   Unknown
5:00 AM 48.2 °F - 44.6 °F 87% 29.80 in 4.3 mi South 9.2 mph - N/A   Unknown
5:30 AM 46.4 °F 42.4 °F 44.6 °F 93% 29.80 in 4.3 mi South 8.1 mph - N/A   Unknown
6:00 AM 46.4 °F 42.4 °F 44.6 °F 93% 29.80 in 5.6 mi South 8.1 mph - N/A   Unknown
6:30 AM 48.2 °F - 44.6 °F 87% 29.77 in - SSE 6.9 mph - N/A   Clear
7:00 AM 46.4 °F 42.4 °F 44.6 °F 93% 29.77 in 4.3 mi SSE 8.1 mph - N/A   Unknown
7:30 AM 46.4 °F 41.5 °F 44.6 °F 93% 29.77 in 4.3 mi SSE 10.4 mph - N/A   Unknown
8:00 AM 48 °F - 44 °F 82% 29.78 in 4 mi South 6.7 mph - -   Mist
8:00 AM 48.2 °F - 44.6 °F 87% 29.77 in 4.3 mi SSE 8.1 mph - N/A   Unknown
8:30 AM 50.0 °F - 46.4 °F 87% 29.74 in 4.3 mi SSE 8.1 mph - N/A   Unknown
9:00 AM 51.8 °F - 46.4 °F 82% 29.74 in 5.0 mi SE 11.5 mph - N/A   Unknown
9:30 AM 51.8 °F - 46.4 °F 82% 29.74 in 5.6 mi SSE 8.1 mph - N/A   Unknown
10:00 AM 51.8 °F - 46.4 °F 82% 29.74 in 6.2 mi SSE 9.2 mph - N/A   Partly Cloudy
10:30 AM 55.4 °F - 48.2 °F 77% 29.74 in 6.2 mi South 9.2 mph - N/A   Partly Cloudy
11:00 AM 57.2 °F - 46.4 °F 67% 29.74 in 6.2 mi South 10.4 mph - N/A   Partly Cloudy
11:30 AM 57.2 °F - 46.4 °F 67% 29.71 in 6.2 mi South 10.4 mph - N/A   Partly Cloudy
12:00 PM 59.0 °F - 48.2 °F 67% 29.71 in 6.2 mi South 10.4 mph - N/A   Partly Cloudy
12:30 PM 60.8 °F - 48.2 °F 63% 29.71 in 6.2 mi South 11.5 mph - N/A   Partly Cloudy
1:00 PM 60.8 °F - 46.4 °F 59% 29.71 in 6.2 mi South 10.4 mph - N/A   Partly Cloudy
1:30 PM 60.8 °F - 48.2 °F 63% 29.71 in 6.2 mi South 9.2 mph - N/A   Partly Cloudy
2:00 PM 60 °F - 46 °F 50% 29.69 in 19 mi South 11.2 mph - - Rain Light Rain
2:00 PM 59.0 °F - 46.4 °F 63% 29.68 in 6.2 mi South 11.5 mph - N/A Rain Light Rain
2:30 PM 59.0 °F - 46.4 °F 63% 29.68 in 6.2 mi South 10.4 mph - N/A   Scattered Clouds
3:00 PM 60.8 °F - 46.4 °F 59% 29.68 in 6.2 mi South 9.2 mph - N/A   Scattered Clouds
3:30 PM 59.0 °F - 46.4 °F 63% 29.68 in 6.2 mi South 10.4 mph - N/A   Scattered Clouds
4:00 PM 59.0 °F - 46.4 °F 63% 29.68 in 6.2 mi South 8.1 mph - N/A Rain Light Rain
4:18 PM 59.0 °F - 46.4 °F 63% 29.68 in 6.2 mi South 6.9 mph - N/A   Scattered Clouds
4:30 PM 59.0 °F - 46.4 °F 63% 29.68 in 6.2 mi SSW 6.9 mph - N/A Rain Light Rain
5:00 PM 57.2 °F - 48.2 °F 72% 29.68 in 6.2 mi SSE 4.6 mph - N/A Rain Light Rain
5:30 PM 55.4 °F - 48.2 °F 77% 29.68 in 6.2 mi WNW 4.6 mph - N/A Rain Light Rain
5:32 PM 55.4 °F - 50.0 °F 82% 29.68 in 5.6 mi WNW 4.6 mph - N/A Rain Rain
6:00 PM 53.6 °F - 50.0 °F 88% 29.68 in 4.3 mi West 10.4 mph - N/A Rain Rain
6:30 PM 51.8 °F - 50.0 °F 94% 29.71 in 3.7 mi WNW 8.1 mph - N/A Rain Rain
6:32 PM 51.8 °F - 50.0 °F 94% 29.71 in 3.7 mi WNW 10.4 mph - N/A Rain Rain
6:37 PM 51.8 °F - 48.2 °F 88% 29.71 in 3.7 mi WNW 12.7 mph - N/A Rain Rain
7:01 PM 50.0 °F - 48.2 °F 94% 29.71 in 3.7 mi NW 13.8 mph - N/A Rain Rain
7:17 PM 48.2 °F - 46.4 °F 93% 29.71 in 3.1 mi NW 12.7 mph - N/A Rain Rain
7:30 PM 48.2 °F - 46.4 °F 93% 29.71 in 3.1 mi WNW 12.7 mph - N/A Rain Rain
7:42 PM 48.2 °F - 46.4 °F 93% 29.74 in 3.1 mi NW 11.5 mph - N/A Rain Rain
8:00 PM 48 °F - 46 °F 91% 29.76 in 4 mi NNW 11.2 mph - - Rain Rain
8:00 PM 48.2 °F - 46.4 °F 93% 29.74 in 3.7 mi NW 12.7 mph - N/A Rain Rain
8:24 PM 46.4 °F 40.7 °F 46.4 °F 100% 29.74 in 5.0 mi WNW 12.7 mph - N/A Rain Light Rain
8:30 PM 46.4 °F 40.7 °F 46.4 °F 100% 29.74 in 5.0 mi WNW 12.7 mph - N/A Rain Light Rain
8:47 PM 46.4 °F 40.4 °F 44.6 °F 93% 29.74 in 6.2 mi WNW 13.8 mph - N/A Rain Light Rain
9:00 PM 46.4 °F 41.1 °F 44.6 °F 93% 29.74 in 6.2 mi WNW 11.5 mph - N/A Rain Light Rain
9:08 PM 46.4 °F 41.5 °F 44.6 °F 93% 29.77 in 6.2 mi WNW 10.4 mph - N/A Rain Light Rain
9:30 PM 46.4 °F 41.1 °F 44.6 °F 93% 29.77 in 6.2 mi WNW 11.5 mph - N/A Rain Light Rain
9:43 PM 46.4 °F 41.1 °F 44.6 °F 93% 29.77 in 5.6 mi WNW 11.5 mph - N/A Rain Light Rain
10:00 PM 46.4 °F 41.5 °F 44.6 °F 93% 29.77 in 6.2 mi WNW 10.4 mph - N/A Rain Light Rain
10:30 PM 44.6 °F 38.8 °F 44.6 °F 100% 29.80 in 5.0 mi WNW 11.5 mph - N/A Rain Rain
11:00 PM 44.6 °F 39.7 °F 44.6 °F 100% 29.80 in 6.2 mi WNW 9.2 mph - N/A Rain Light Rain
11:30 PM 44.6 °F 39.7 °F 42.8 °F 93% 29.80 in 6.2 mi WNW 9.2 mph - N/A Rain Light Rain